Regional Weather Roundup
Issued by NWS Pendleton, OR

Home | Current Version | Previous Version | Text Only | Print | Product List | Glossary On
Versions: 1 2 3 4 5 6 7 8 9 10 11 12 13 14 15 16 17 18 19 20 21 22 23 24 25 26 27 28 29 30 31 32 33 34 35 36 37 38 39 40 41 42 43 44 45 46 47 48 49 50
449
ASUS46 KPDT 151225
RWRPDT
PENDLETON REGIONAL WEATHER ROUNDUP
NATIONAL WEATHER SERVICE PENDLETON OREGON
400 AM PST FRI DEC 15 2017

NOTE: FAIR INDICATES FEW OR NO CLOUDS BELOW 12,000 FEET WITH NO
SIGNIFICANT WEATHER AND/OR OBSTRUCTIONS TO VISIBILITY.

# INDICATES UNOFFICIAL STATION AND DATA

WAZ520-151310-
EAST SLOPES OF WASHINGTON CASCADES

CITY            SKY/WX      TMP DP  RH  WIND    PRES   REMARKS
#BULLFROG       N/A         29  25  85  CALM    N/A
#CLE ELUM HS    N/A         30  24  78  CALM    30.16F
#CLE ELUM LAKE  N/A         24  23  96  CALM    30.07F
#EASTON DOT     N/A         26  24  92  CALM    N/A
#ELK HTS DOT    N/A         27  27  100 CALM    N/A
#GLENWOOD       N/A         27  25  92  CALM    30.33F
#NELSON 3SW     N/A         23  22  96  CALM    30.53F
#NILE           N/A         27  25  92  CALM    29.56F
#TEANAWAY 4NE   N/A         28  26  92  CALM    N/A
#TROUT LAKE 1NE N/A         26  25  96  CALM    30.34F
#TROUT LAKE 1E  N/A         26  24  92  CALM    30.27F
$$

WAZ521-151310-
SIMCOE HIGHLANDS

CITY            SKY/WX      TMP DP  RH  WIND    PRES   REMARKS
#BICKLETON HS   N/A         N/A N/A N/A CALM    30.27F
#SATUS PASS DOT N/A         22  21  96  CALM    N/A
#CENTERVILLE 1SWN/A         25  21  84  CALM    30.32F
#GOLDENDALE 1NE N/A         29  19  66  CALM    N/A
#GOLDENDALE 4W  N/A         27  15  60  CALM    30.28F
#GOODNOE HILLS  N/A         28  23  81  S3      30.18F
#LYLE 6NE       N/A         27  25  92  CALM    30.35F
#PITT 4SE       N/A         23  22  96  CALM    30.39F
$$

WAZ026-151310-
KITTITAS VALLEY

CITY            SKY/WX      TMP DP  RH  WIND    PRES   REMARKS
ELLENSBURG AP   CLOUDY      31  27  85  CALM    30.24F
6HR MIN TEMP:   31; 6HR MAX TEMP:   32; 6HR PCP:  TRACE;

#ELLENSBURG CWU N/A         29  27  92  CALM    30.26F
#ELLENSBURG 3NE N/A         28  27  96  CALM    28.31F
#ELLENSBURG 1E  N/A         29  27  92  CALM    30.36F
#KITTITAS 3S    N/A         30  27  88  CALM    30.31F
#MANASTASH RDG  N/A         25  25  100 SE2     N/A
#ROCKY CYN DOT  N/A         29  28  96  CALM    N/A
#RYEGRASS DOT   N/A         26  24  92  SW3     N/A
$$

WAZ027-151310-
YAKIMA VALLEY

CITY            SKY/WX      TMP DP  RH  WIND    PRES   REMARKS
SUNNYSIDE AP    CLOUDY      30  28  92  SE3     30.31F
YAKIMA AIRPORT  CLOUDY      33  27  78  S6      30.29F
6HR MIN TEMP:   33; 6HR MAX TEMP:   34;

YAKIMA-VAGABOND CLOUDY      29  27  92  S3      30.25F
6HR MIN TEMP:   29; 6HR MAX TEMP:   30;

#DONALD 2NE     N/A         31  18  58  NW1     29.12F
#GRANDVIEW      N/A         31  27  85  CALM    30.24F
#MABTON         N/A         32  29  89  SE2     30.29F
#MOXEE 2E       N/A         31  N/A N/A CALM    30.47F
#NACHES 2SW     N/A         28  26  92  SE1     30.32S
#OUTLOOK DOT    N/A         31  30  96  E2      30.27F
#PARKER DOT     N/A         31  28  88  W1      30.29F
#TERRACE HTS    N/A         30  28  92  CALM    30.31F
#TOPPENISH      N/A         31  28  88  CALM    30.26F
#I82 S UMTANUM RN/A         27  26  96  S2      N/A
#UNION GAP DOT  N/A         31  28  88  CALM    30.32F
#W YAKIMA       N/A         30  26  85  CALM    30.33F
#WHITE SWAN 5E  N/A         31  28  88  CALM    30.35F
#WILEY CITY 3W  N/A         29  23  78  S1      30.22F
#ZILLAH DOT     N/A         31  29  92  E2      N/A
$$

WAZ028-151310-
LOWER COLUMBIA BASIN...WASHINGTON

CITY            SKY/WX      TMP DP  RH  WIND    PRES   REMARKS
PASCO           CLOUDY      32  29  89  SE6     30.34F
PROSSER AWOS    N/A         32  30  92  S7      30.34F
RICHLAND AWOS   CLOUDY      33  31  92  E7      30.32F
#BENTON CITY    N/A         30  28  92  CALM    30.26F
#CONNELL 5N     N/A         28  27  96  S5      30.35F
#CONNELL 5NW    N/A         28  27  96  SE6     30.28F
#ELTOPIA 6NW    N/A         29  28  96  CALM    29.28F
#KAHLOTUS       N/A         27  26  96  CALM    30.35F
#KENNEWICK 3S   N/A         30  27  88  SW1     30.37F
#PATERSON       N/A         31  28  88  CALM    30.35F
#PROSSER DOT    N/A         31  29  92  SE2     30.32F
#SAGEMOOR 2W    N/A         29  27  92  SE2     30.25F
#TOUCHET 2S     N/A         31  28  88  CALM    30.36S
#WEST PASCO     N/A         33  30  89  CALM    30.36F
$$

WAZ029-151310-
FOOTHILLS OF THE BLUES...WASHINGTON

CITY            SKY/WX      TMP DP  RH  WIND    PRES   REMARKS
WALLA WALLA AP  CLOUDY      30  27  88  CALM    30.30F
6HR MIN TEMP:   30; 6HR MAX TEMP:   31;

#CLYDE 6NW      N/A         27  25  92  S3      30.36R
#DELANEY DOT    N/A         29  26  88  CALM    30.34F
#LOWDEN 2SE     N/A         31  29  92  CALM    30.31F
#PLEASANT VIEW 1N/A         25  24  96  SE3     30.40F
#PRESCOTT       N/A         31  27  85  CALM    30.36F
#WHITMAN COLLEGEN/A         30  27  88  CALM    30.33F
#WAITSBURG 5S   N/A         26  25  96  CALM    30.47F
#WAITSBURG 6SSE N/A         26  24  92  SE2     30.33F
#WALLA WALLA 5E N/A         29  27  92  SW2     N/A
#WHITMAN MISSIONN/A         31  28  88  CALM    30.38F
$$

WAZ030-151310-
BLUE MOUNTAINS...WASHINGTON

CITY            SKY/WX      TMP DP  RH  WIND    PRES   REMARKS
#DIXIE 5SE      N/A         22  20  92  CALM    30.11F
$$

ORZ009-041-WAZ024-151310-
COLUMBIA RIVER GORGE

CITY            SKY/WX      TMP DP  RH  WIND    PRES   REMARKS
HOOD RIVER AP   CLOUDY      32  27  82  CALM    30.32F
THE DALLES AP   CLOUDY      33  27  78  CALM    30.35F
6HR MIN TEMP:   33; 6HR MAX TEMP:   35;

#ARLINGTON AIRPON/A         29  26  88  S3      30.37F
#ARLINGTON HS   N/A         32  24  72  N2      30.27F
#CELILO DOT     N/A         34  22  61  CALM    N/A
#LYLE           N/A         34  28  78  SE5     30.36F
#MARYHILL       N/A         30  25  81  N2      N/A
#MURDOCK        N/A         33  28  82  CALM    30.32F
#RUFUS DOT      N/A         33  N/A N/A S3      N/A
#SMITHVILLE     N/A         32  28  85  CALM    30.29F

$$

ORZ510-151310-
NORTH CENTRAL OREGON

CITY            SKY/WX      TMP DP  RH  WIND    PRES   REMARKS
#ANTELOPE       N/A         21  19  92  NE1     30.26F
#CHENOWITH 1W   N/A         26  24  92  E2      N/A
#COW CYN RST AREN/A         22  N/A N/A E1      N/A
#DUFUR          N/A         27  24  88  CALM    30.32F
#DUFUR 9E       N/A         23  22  96  CALM    30.41F
#GRASS VALLEY 1SN/A         24  23  96  CALM    30.22F
#KENT DOT       N/A         22  17  81  CALM    N/A
#MAUPIN SCHOOL  N/A         30  24  78  CALM    30.33F
#MORO SCHOOL    N/A         26  26  100 CALM    30.23F
#SHANIKO 5WSW   N/A         23  N/A N/A S12     N/A    WCI 11
#SHANIKO 4NW    N/A         25  25  100 SW2     30.16S
#TYGH VALLEY 2NEN/A         28  24  85  CALM    30.34F
#WAPANITIA AIRPON/A         25  23  92  CALM    30.37F
#WASCO DOT      N/A         29  26  88  S2      N/A
#WASCO 5NE      N/A         28  18  66  CALM    30.35F
$$

ORZ511-151310-
CENTRAL OREGON

CITY            SKY/WX      TMP DP  RH  WIND    PRES   REMARKS
BEND AIRPORT    CLOUDY      28  23  81  SE6     30.21F
PRINEVILLE AP   CLOUDY      25  23  92  SE5     30.21F
REDMOND AIRPORT CLOUDY      18  15  88  CALM    30.21F
6HR MIN TEMP:   11; 6HR MAX TEMP:   20;

#ASHWOOD SCHOOL N/A         23  20  88  CALM    30.19S
#BEND 1SW       N/A         33  25  72  W2      N/A
#BEND-AWBREY    N/A         37  26  64  S5      30.36F
#BEND-KIM LN    N/A         22  20  92  CALM    30.35F
#CULVER         N/A         19  17  92  CALM    30.23F
#CULVER 8W      N/A         21  15  77  E2      30.32F
#LAKE BILLY CHINN/A         21  N/A N/A E3      30.33F
#MADRAS 4S      N/A         21   7  54  CALM    N/A
#POWELL BUTTE   N/A         32  29  89  SE2     30.11F
#PRINEVILLE     N/A         17  15  92  CALM    30.51S
#PRINEVILLE 3N  N/A         18  16  92  CALM    30.39F
#WARM SPRINGS   N/A         26  22  85  CALM    30.19F

$$


ORZ509-151310-
EAST SLOPES OF OREGON CASCADES

CITY            SKY/WX      TMP DP  RH  WIND    PRES   REMARKS
SISTERS AWOS    N/A         18  16  92  CALM    N/A
#BLUE BOX PASS  N/A         43  N/A N/A NW3     N/A
#CAMP SHERMAN   N/A         17  13  84  CALM    30.42F
#LA PINE 4NW    N/A         19  14  80  CALM    30.46F
#LAVA BUTTE DOT N/A         31  19  61  CALM    N/A
#SISTERS ODOT   N/A         17  15  92  CALM    N/A
#SISTERS 3N     N/A         18  11  74  CALM    30.20F
#SUNRIVER       N/A         26  22  85  S2      30.23F
#TUMALO 3W      N/A         28  24  85  N1      30.28F
#WANOGA BUTTE D N/A         46   6  19  W8      N/A

$$

ORZ044-151310-
LOWER COLUMBIA BASIN...OREGON

CITY            SKY/WX      TMP DP  RH  WIND    PRES   REMARKS
HERMISTON       CLOUDY      31  29  92  CALM    30.34F
6HR MIN TEMP:   31; 6HR MAX TEMP:   32;

#BOARDMAN SCHOOLN/A         33  28  82  S2      30.33F
#BOARDMAN 8SW   N/A         31  28  88  SW3     30.34F
#ECHO 8SW       N/A         30  28  92  SW1     30.34F
#I-84 EX 198 DOTN/A         28  25  88  NE6     N/A
#IONE SCHOOL    N/A         29  15  55  CALM    30.39F
#UMATILLA       N/A         32  28  85  CALM    30.30F
$$

ORZ507-151310-
NORTHERN FOOTHILLS OF THE BLUES

CITY            SKY/WX      TMP DP  RH  WIND    PRES   REMARKS
PENDLETON AIRPT CLOUDY      27  23  85  W5      30.29S
6HR MIN TEMP:   27; 6HR MAX TEMP:   28;

#ADAMS 3WNW     N/A         26  24  92  CALM    30.37S
#ATHENA         N/A         26  25  96  CALM    30.40S
#HELIX SCHOOL   N/A         26  25  96  N1      30.37S
#HELIX 3N       N/A         25  24  96  CALM    30.26S
#HOLDMAN 5SE    N/A         27  25  92  CALM    30.27F
#HOLDMAN 6E     N/A         25  24  96  S1      30.17S
#M-F GROVE ELEM N/A         29  24  81  CALM    30.27F
#M-FREEWATER 5SEN/A         27  24  88  CALM    30.28F
#PENDLETON DNTN N/A         29  22  75  CALM    30.28S
#PDT AQUATIC CTRN/A         28  24  85  W2      30.26F
#PDT SUNRIDGE   N/A         28  25  88  CALM    30.32F
#PENDLETON 6SE  N/A         27  25  92  W2      30.33F
#PENDLETON 7NW  N/A         28  23  81  CALM    30.32F
#PILOT ROCK 1S  N/A         26  20  78  CALM    30.27F
#PILOT ROCK     N/A         28  24  85  CALM    30.27F
#TUTUILLA       N/A         26  23  88  CALM    30.35F
#UMAPINE 2E     N/A         31  29  92  CALM    30.31S
#WESTON SCHOOL  N/A         25  22  88  CALM    30.22F

$$

ORZ508-151310-
SOUTHERN FOOTHILLS OF THE BLUES

CITY            SKY/WX      TMP DP  RH  WIND    PRES   REMARKS
LEXINGTON       CLOUDY      27  27  100 S5      30.29F
#AJAX           N/A         24  17  74  CALM    30.37F
#CONDON 5W      N/A         21  18  88  SW3     30.13F
#FOSSIL SCHOOL  N/A         24  23  96  CALM    30.15S
#HEPPNER EOC    N/A         24  23  96  CALM    30.31F
#HEPPNER 4NE    N/A         22  21  96  CALM    30.37F
#LEXINGTON 2SE  N/A         27  24  88  CALM    30.25F
#MIKKALO        N/A         26  22  85  CALM    30.36F
#OLEX 4N        N/A         28  25  88  S2      30.28F
#RUGGS 5NE      N/A         22  22  100 CALM    30.33F
#RUGGS 2SW      N/A         21  19  92  CALM    30.40F

$$

ORZ502-503-151310-
BLUE MOUNTAINS

CITY            SKY/WX      TMP DP  RH  WIND    PRES   REMARKS
#BATTLE MTN DOT N/A         24  22  92  S8      N/A
#GRANITE        N/A         12  N/A N/A CALM    30.44R
#GREENHORN 9SW  N/A         22  18  84  NE2     30.26F
#LADD CYN SMT   N/A         22  22  100 SE22    N/A    WCI  6
#LADD CREEK ODOTN/A         25  10  52  S8      N/A
#LONG CREEK HS  N/A         22  22  100 CALM    30.22R
#N POWDER DOT   N/A         24  22  92  S9      N/A
#PIKES PEAK     N/A         19  16  88  CALM    27.99S
#SUMMERVILLE 5NWN/A         23  22  96  CALM    30.31F
#TOLLGATE       N/A         30  24  78  CALM    30.16F
#TROY SCHOOL    N/A         32  27  82  W5      30.22F
#UKIAH          N/A         15  13  92  CALM    30.34S
#WESTON 4E      N/A         20  19  96  CALM    30.34F
$$

ORZ505-151310-
JOHN DAY BASIN

CITY            SKY/WX      TMP DP  RH  WIND    PRES   REMARKS
JOHN DAY        MOCLDY      30  23  75  E10     30.21F
#ANTELOPE 9ESE  N/A         27  23  85  CALM    N/A
#DAYVILLE SCHOOLN/A         19  15  84  CALM    30.22S
#MITCHELL 8NW   N/A         25  23  92  CALM    30.45F
#MONUMENT HS    N/A         18  14  84  CALM    30.23S
#MT. VERNON 5SE N/A         33  25  72  CALM    30.15S
#SPRAY SCHOOL   N/A         20  N/A N/A CALM    N/A
$$

ORZ506-151310-
OCHOCO AND JOHN DAY HIGHLANDS

CITY            SKY/WX      TMP DP  RH  WIND    PRES   REMARKS
#HORSE RIDGE DO N/A         22  18  84  E8      N/A
#IZEE 6NW       N/A         19  18  96  N3      N/A
#PAULINA ODOT   N/A         17  15  92  CALM    N/A
#PINE MTN OBS   N/A         51   2  13  CALM    N/A
#SENECA         N/A         11  N/A N/A CALM    N/A
#SENECA 9NW     N/A         13  11  91  CALM    30.44F
$$

ORZ049-151310-
GRANDE RONDE VALLEY

CITY            SKY/WX      TMP DP  RH  WIND    PRES   REMARKS
LA GRANDE       CLOUDY      26  22  85  S20G31  30.28F WCI 12
#COVE SCHOOL    N/A         26  23  88  CALM    30.25F
#COVE 6NW       N/A         26  23  88  SE7     30.40F
#ELGIN 3N       N/A         25  18  74  S8      30.22F
#ELGIN 1E       N/A         27  22  81  S1      N/A
#IMBLER SCHOOL  N/A         25  22  88  S10G26  30.22F
#ISLAND CITY 4N N/A         29  27  92  CALM    30.28F
#LADD CYN DOT   N/A         26  24  92  S31G40  N/A    WCI  9
#UNION 1S       N/A         27  23  85  S21G29  30.40F WCI 13
$$

ORZ050-151310-
WALLOWA COUNTY

CITY            SKY/WX      TMP DP  RH  WIND    PRES   REMARKS
JOSEPH AIRPORT  FRZFOG      19  18  96  CALM    30.19F VSB 1/2
#ENTERPRISE HS  N/A         23  21  92  CALM    30.28F
#IMNAHA SCHOOL  N/A         26  23  88  S1      30.24F
#IMNAHA 10S     N/A         20  18  92  CALM    30.17F
#JOSEPH         N/A         19  15  84  CALM    30.66F
#JOSEPH 3N      N/A         19  15  84  CALM    30.20F
#JOSEPH 3W      N/A         16  14  92  CALM    30.66F
#LOSTINE        N/A         23  21  92  CALM    30.20F
#LOSTINE 3SE    N/A         23  22  96  CALM    30.25F
#MT HOWARD 8000 N/A         45  -10  9  S6      30.14F
#PROMISE 1S     N/A         25  22  88  S3      30.45F
#WALLOWA SCHOOL N/A         25  23  92  CALM    30.21F



$$



USA.gov is the U.S. government's official web portal to all federal, state and local government web resources and services.